Time,TemperatureF,DewpointF,PressureIn,WindDirection,WindDirectionDegrees,WindSpeedMPH,WindSpeedGustMPH,Humidity,HourlyPrecipIn,Conditions,Clouds,dailyrainin,SoftwareType,DateUTC
2013-03-08 00:01:00,16.0,10.0,30.21,North,-999,-999.0,-999.0,78,-99.99,,,-99.99,,2013-03-08 06:01:00,
2013-03-08 00:11:00,16.0,10.0,30.21,North,-999,-999.0,-999.0,78,-99.99,,,-99.99,,2013-03-08 06:11:00,
2013-03-08 00:22:00,16.0,10.0,30.21,North,-999,-999.0,-999.0,78,-99.99,,,-99.99,,2013-03-08 06:22:00,
2013-03-08 00:32:00,16.0,12.0,30.22,North,-999,-999.0,-999.0,85,-99.99,,,-99.99,,2013-03-08 06:32:00,
2013-03-08 00:42:00,16.0,12.0,30.22,North,-999,-999.0,-999.0,85,-99.99,,,-99.99,,2013-03-08 06:42:00,
2013-03-08 00:52:00,16.0,12.0,30.22,North,-999,-999.0,-999.0,85,-99.99,,,-99.99,,2013-03-08 06:52:00,
2013-03-08 01:01:00,16.0,12.0,30.22,North,-999,-999.0,-999.0,85,-99.99,,,-99.99,,2013-03-08 07:01:00,
2013-03-08 01:11:00,16.0,12.0,30.21,North,-999,-999.0,-999.0,85,-99.99,,,-99.99,,2013-03-08 07:11:00,
2013-03-08 01:22:00,16.0,12.0,30.21,North,-999,-999.0,-999.0,85,-99.99,,,-99.99,,2013-03-08 07:22:00,
2013-03-08 01:31:00,16.0,12.0,30.22,North,-999,-999.0,-999.0,85,-99.99,,,-99.99,,2013-03-08 07:31:00,
2013-03-08 01:42:00,16.0,12.0,30.22,North,-999,-999.0,-999.0,85,-99.99,,,-99.99,,2013-03-08 07:42:00,
2013-03-08 01:51:00,16.0,10.0,30.21,North,-999,-999.0,-999.0,78,-99.99,,,-99.99,,2013-03-08 07:51:00,
2013-03-08 02:01:00,16.0,10.0,30.21,North,-999,-999.0,-999.0,78,-99.99,,,-99.99,,2013-03-08 08:01:00,
2013-03-08 02:11:00,14.0,10.0,30.22,North,-999,-999.0,-999.0,85,-99.99,,,-99.99,,2013-03-08 08:11:00,
2013-03-08 02:22:00,14.0,10.0,30.22,North,-999,-999.0,-999.0,85,-99.99,,,-99.99,,2013-03-08 08:22:00,
2013-03-08 02:32:00,12.0,9.0,30.22,North,-999,-999.0,-999.0,85,-99.99,,,-99.99,,2013-03-08 08:32:00,
2013-03-08 02:42:00,12.0,9.0,30.22,North,-999,-999.0,-999.0,85,-99.99,,,-99.99,,2013-03-08 08:42:00,
2013-03-08 02:52:00,12.0,7.0,30.22,North,-999,-999.0,-999.0,78,-99.99,,,-99.99,,2013-03-08 08:52:00,
2013-03-08 03:03:00,12.0,7.0,30.22,North,-999,-999.0,-999.0,78,-99.99,,,-99.99,,2013-03-08 09:03:00,
2013-03-08 03:11:00,12.0,9.0,30.21,North,-999,-999.0,-999.0,85,-99.99,,,-99.99,,2013-03-08 09:11:00,
2013-03-08 03:21:00,12.0,9.0,30.21,North,-999,-999.0,-999.0,85,-99.99,,,-99.99,,2013-03-08 09:21:00,
2013-03-08 03:32:00,10.0,7.0,30.20,North,-999,-999.0,-999.0,85,-99.99,,,-99.99,,2013-03-08 09:32:00,
2013-03-08 03:42:00,10.0,7.0,30.20,North,-999,-999.0,-999.0,85,-99.99,,,-99.99,,2013-03-08 09:42:00,
2013-03-08 03:52:00,10.0,7.0,30.20,North,-999,-999.0,-999.0,85,-99.99,,,-99.99,,2013-03-08 09:52:00,
2013-03-08 04:01:00,10.0,7.0,30.20,North,-999,-999.0,-999.0,85,-99.99,,,-99.99,,2013-03-08 10:01:00,
2013-03-08 04:11:00,10.0,7.0,30.21,North,-999,-999.0,-999.0,85,-99.99,,,-99.99,,2013-03-08 10:11:00,
2013-03-08 04:21:00,10.0,7.0,30.21,North,-999,-999.0,-999.0,85,-99.99,,,-99.99,,2013-03-08 10:21:00,
2013-03-08 04:32:00,10.0,7.0,30.20,North,-999,-999.0,-999.0,85,-99.99,,,-99.99,,2013-03-08 10:32:00,
2013-03-08 04:42:00,10.0,7.0,30.20,North,-999,-999.0,-999.0,85,-99.99,,,-99.99,,2013-03-08 10:42:00,
2013-03-08 04:51:00,10.0,7.0,30.21,North,-999,-999.0,-999.0,85,-99.99,,,-99.99,,2013-03-08 10:51:00,
2013-03-08 05:01:00,10.0,7.0,30.21,North,-999,-999.0,-999.0,85,-99.99,,,-99.99,,2013-03-08 11:01:00,
2013-03-08 05:11:00,10.0,7.0,30.21,North,-999,-999.0,-999.0,85,-99.99,,,-99.99,,2013-03-08 11:11:00,
2013-03-08 05:21:00,10.0,7.0,30.21,North,-999,-999.0,-999.0,85,-99.99,,,-99.99,,2013-03-08 11:21:00,
2013-03-08 05:32:00,9.0,5.0,30.22,North,-999,-999.0,-999.0,84,-99.99,,,-99.99,,2013-03-08 11:32:00,
2013-03-08 05:42:00,9.0,5.0,30.22,North,-999,-999.0,-999.0,84,-99.99,,,-99.99,,2013-03-08 11:42:00,
2013-03-08 05:52:00,10.0,7.0,30.22,North,-999,-999.0,-999.0,85,-99.99,,,-99.99,,2013-03-08 11:52:00,
2013-03-08 06:02:00,10.0,7.0,30.22,North,-999,-999.0,-999.0,85,-99.99,,,-99.99,,2013-03-08 12:02:00,
2013-03-08 06:11:00,10.0,5.0,30.22,North,-999,-999.0,-999.0,78,-99.99,,,-99.99,,2013-03-08 12:11:00,
2013-03-08 06:22:00,10.0,5.0,30.22,North,-999,-999.0,-999.0,78,-99.99,,,-99.99,,2013-03-08 12:22:00,
2013-03-08 06:32:00,10.0,7.0,30.22,North,-999,-999.0,-999.0,85,-99.99,,,-99.99,,2013-03-08 12:32:00,
2013-03-08 06:43:00,10.0,7.0,30.22,North,-999,-999.0,-999.0,85,-99.99,,,-99.99,,2013-03-08 12:43:00,
2013-03-08 06:52:00,12.0,9.0,30.22,North,-999,-999.0,-999.0,85,-99.99,,,-99.99,,2013-03-08 12:52:00,
2013-03-08 07:01:00,12.0,9.0,30.22,North,-999,-999.0,-999.0,85,-99.99,,,-99.99,,2013-03-08 13:01:00,
2013-03-08 07:11:00,12.0,7.0,30.22,North,-999,-999.0,-999.0,78,-99.99,,,-99.99,,2013-03-08 13:11:00,
2013-03-08 07:21:00,12.0,7.0,30.22,North,-999,-999.0,-999.0,78,-99.99,,,-99.99,,2013-03-08 13:21:00,
2013-03-08 07:32:00,10.0,7.0,30.22,North,-999,-999.0,-999.0,85,-99.99,,,-99.99,,2013-03-08 13:32:00,
2013-03-08 07:42:00,10.0,7.0,30.22,North,-999,-999.0,-999.0,85,-99.99,,,-99.99,,2013-03-08 13:42:00,
2013-03-08 07:52:00,10.0,7.0,30.23,North,-999,-999.0,-999.0,85,-99.99,,,-99.99,,2013-03-08 13:52:00,
2013-03-08 08:02:00,10.0,7.0,30.23,North,-999,-999.0,-999.0,85,-99.99,,,-99.99,,2013-03-08 14:02:00,
2013-03-08 08:11:00,10.0,7.0,30.23,North,-999,-999.0,-999.0,85,-99.99,,,-99.99,,2013-03-08 14:11:00,
2013-03-08 08:22:00,10.0,7.0,30.23,North,-999,-999.0,-999.0,85,-99.99,,,-99.99,,2013-03-08 14:22:00,
2013-03-08 08:32:00,12.0,7.0,30.23,North,-999,-999.0,-999.0,78,-99.99,,,-99.99,,2013-03-08 14:32:00,
2013-03-08 08:42:00,12.0,7.0,30.23,North,-999,-999.0,-999.0,78,-99.99,,,-99.99,,2013-03-08 14:42:00,
2013-03-08 08:52:00,12.0,9.0,30.22,North,-999,-999.0,-999.0,85,-99.99,,,-99.99,,2013-03-08 14:52:00,
2013-03-08 09:03:00,12.0,9.0,30.22,North,-999,-999.0,-999.0,85,-99.99,,,-99.99,,2013-03-08 15:03:00,
2013-03-08 09:11:00,12.0,9.0,30.22,North,-999,-999.0,-999.0,85,-99.99,,,-99.99,,2013-03-08 15:11:00,
2013-03-08 09:22:00,12.0,9.0,30.22,North,-999,-999.0,-999.0,85,-99.99,,,-99.99,,2013-03-08 15:22:00,
2013-03-08 09:32:00,16.0,10.0,30.22,North,-999,-999.0,-999.0,78,-99.99,,,-99.99,,2013-03-08 15:32:00,
2013-03-08 09:43:00,16.0,10.0,30.22,North,-999,-999.0,-999.0,78,-99.99,,,-99.99,,2013-03-08 15:43:00,
2013-03-08 09:53:00,18.0,12.0,30.22,North,-999,-999.0,-999.0,78,-99.99,,,-99.99,,2013-03-08 15:53:00,
2013-03-08 10:01:00,18.0,12.0,30.22,North,-999,-999.0,-999.0,78,-99.99,,,-99.99,,2013-03-08 16:01:00,
2013-03-08 10:11:00,21.0,18.0,30.23,North,-999,-999.0,-999.0,85,-99.99,,,-99.99,,2013-03-08 16:11:00,
2013-03-08 10:22:00,21.0,18.0,30.23,North,-999,-999.0,-999.0,85,-99.99,,,-99.99,,2013-03-08 16:22:00,
2013-03-08 10:32:00,19.0,16.0,30.22,North,-999,-999.0,-999.0,85,-99.99,,,-99.99,,2013-03-08 16:32:00,
2013-03-08 10:42:00,19.0,16.0,30.22,North,-999,-999.0,-999.0,85,-99.99,,,-99.99,,2013-03-08 16:42:00,
2013-03-08 10:52:00,21.0,16.0,30.22,North,-999,-999.0,-999.0,79,-99.99,,,-99.99,,2013-03-08 16:52:00,
2013-03-08 11:02:00,21.0,16.0,30.22,North,-999,-999.0,-999.0,79,-99.99,,,-99.99,,2013-03-08 17:02:00,
2013-03-08 11:11:00,21.0,16.0,30.22,North,-999,-999.0,-999.0,79,-99.99,,,-99.99,,2013-03-08 17:11:00,
2013-03-08 11:21:00,21.0,16.0,30.22,North,-999,-999.0,-999.0,79,-99.99,,,-99.99,,2013-03-08 17:21:00,
2013-03-08 11:32:00,23.0,18.0,30.22,North,-999,-999.0,-999.0,79,-99.99,,,-99.99,,2013-03-08 17:32:00,
2013-03-08 11:42:00,23.0,18.0,30.22,North,-999,-999.0,-999.0,79,-99.99,,,-99.99,,2013-03-08 17:42:00,
2013-03-08 11:52:00,25.0,18.0,30.22,North,-999,-999.0,-999.0,73,-99.99,,,-99.99,,2013-03-08 17:52:00,
2013-03-08 12:02:00,25.0,18.0,30.22,North,-999,-999.0,-999.0,73,-99.99,,,-99.99,,2013-03-08 18:02:00,
2013-03-08 12:11:00,25.0,18.0,30.21,North,-999,-999.0,-999.0,73,-99.99,,,-99.99,,2013-03-08 18:11:00,
2013-03-08 12:21:00,25.0,18.0,30.21,North,-999,-999.0,-999.0,73,-99.99,,,-99.99,,2013-03-08 18:21:00,
2013-03-08 12:32:00,25.0,18.0,30.21,North,-999,-999.0,-999.0,73,-99.99,,,-99.99,,2013-03-08 18:32:00,
2013-03-08 12:42:00,25.0,18.0,30.21,North,-999,-999.0,-999.0,73,-99.99,,,-99.99,,2013-03-08 18:42:00,
2013-03-08 12:52:00,25.0,19.0,30.21,North,-999,-999.0,-999.0,79,-99.99,,,-99.99,,2013-03-08 18:52:00,
2013-03-08 13:01:00,25.0,19.0,30.21,North,-999,-999.0,-999.0,79,-99.99,,,-99.99,,2013-03-08 19:01:00,
2013-03-08 13:11:00,27.0,19.0,30.21,North,-999,-999.0,-999.0,73,-99.99,,,-99.99,,2013-03-08 19:11:00,
2013-03-08 13:22:00,27.0,19.0,30.21,North,-999,-999.0,-999.0,73,-99.99,,,-99.99,,2013-03-08 19:22:00,
2013-03-08 13:32:00,27.0,19.0,30.21,North,-999,-999.0,-999.0,73,-99.99,,,-99.99,,2013-03-08 19:32:00,
2013-03-08 13:42:00,27.0,19.0,30.21,North,-999,-999.0,-999.0,73,-99.99,,,-99.99,,2013-03-08 19:42:00,
2013-03-08 13:52:00,27.0,19.0,30.21,North,-999,-999.0,-999.0,73,-99.99,,,-99.99,,2013-03-08 19:52:00,
2013-03-08 14:01:00,27.0,19.0,30.21,North,-999,-999.0,-999.0,73,-99.99,,,-99.99,,2013-03-08 20:01:00,
2013-03-08 14:11:00,27.0,19.0,30.21,North,-999,-999.0,-999.0,73,-99.99,,,-99.99,,2013-03-08 20:11:00,
2013-03-08 14:21:00,27.0,19.0,30.21,North,-999,-999.0,-999.0,73,-99.99,,,-99.99,,2013-03-08 20:21:00,
2013-03-08 14:32:00,27.0,21.0,30.19,North,-999,-999.0,-999.0,79,-99.99,,,-99.99,,2013-03-08 20:32:00,
2013-03-08 14:42:00,27.0,21.0,30.19,North,-999,-999.0,-999.0,79,-99.99,,,-99.99,,2013-03-08 20:42:00,
2013-03-08 14:53:00,27.0,21.0,30.18,North,-999,-999.0,-999.0,79,-99.99,,,-99.99,,2013-03-08 20:53:00,
2013-03-08 15:02:00,27.0,21.0,30.18,North,-999,-999.0,-999.0,79,-99.99,,,-99.99,,2013-03-08 21:02:00,
2013-03-08 15:11:00,27.0,21.0,30.18,North,-999,-999.0,-999.0,79,-99.99,,,-99.99,,2013-03-08 21:11:00,
2013-03-08 15:22:00,27.0,21.0,30.18,North,-999,-999.0,-999.0,79,-99.99,,,-99.99,,2013-03-08 21:22:00,
2013-03-08 15:32:00,28.0,21.0,30.18,North,-999,-999.0,-999.0,74,-99.99,,,-99.99,,2013-03-08 21:32:00,
2013-03-08 15:42:00,28.0,21.0,30.18,North,-999,-999.0,-999.0,74,-99.99,,,-99.99,,2013-03-08 21:42:00,
2013-03-08 15:52:00,28.0,21.0,30.17,North,-999,-999.0,-999.0,74,-99.99,,,-99.99,,2013-03-08 21:52:00,
2013-03-08 16:01:00,28.0,21.0,30.17,North,-999,-999.0,-999.0,74,-99.99,,,-99.99,,2013-03-08 22:01:00,
2013-03-08 16:11:00,27.0,21.0,30.16,North,-999,-999.0,-999.0,79,-99.99,,,-99.99,,2013-03-08 22:11:00,
2013-03-08 16:22:00,27.0,21.0,30.16,North,-999,-999.0,-999.0,79,-99.99,,,-99.99,,2013-03-08 22:22:00,
2013-03-08 16:32:00,27.0,21.0,30.16,North,-999,-999.0,-999.0,79,-99.99,,,-99.99,,2013-03-08 22:32:00,
2013-03-08 16:42:00,27.0,21.0,30.16,North,-999,-999.0,-999.0,79,-99.99,,,-99.99,,2013-03-08 22:42:00,
2013-03-08 16:52:00,27.0,21.0,30.15,North,-999,-999.0,-999.0,79,-99.99,,,-99.99,,2013-03-08 22:52:00,
2013-03-08 17:02:00,27.0,21.0,30.15,North,-999,-999.0,-999.0,79,-99.99,,,-99.99,,2013-03-08 23:02:00,
2013-03-08 17:11:00,27.0,21.0,30.14,North,-999,-999.0,-999.0,79,-99.99,,,-99.99,,2013-03-08 23:11:00,
2013-03-08 17:22:00,27.0,21.0,30.14,North,-999,-999.0,-999.0,79,-99.99,,,-99.99,,2013-03-08 23:22:00,
2013-03-08 17:32:00,27.0,21.0,30.15,North,-999,-999.0,-999.0,79,-99.99,,,-99.99,,2013-03-08 23:32:00,
2013-03-08 17:42:00,27.0,21.0,30.15,North,-999,-999.0,-999.0,79,-99.99,,,-99.99,,2013-03-08 23:42:00,
2013-03-08 17:52:00,27.0,21.0,30.14,North,-999,-999.0,-999.0,79,-99.99,,,-99.99,,2013-03-08 23:52:00,
2013-03-08 18:02:00,27.0,21.0,30.14,North,-999,-999.0,-999.0,79,-99.99,,,-99.99,,2013-03-09 00:02:00,
2013-03-08 18:11:00,27.0,21.0,30.13,North,-999,-999.0,-999.0,79,-99.99,,,-99.99,,2013-03-09 00:11:00,
2013-03-08 18:22:00,27.0,21.0,30.13,North,-999,-999.0,-999.0,79,-99.99,,,-99.99,,2013-03-09 00:22:00,
2013-03-08 18:32:00,27.0,21.0,30.12,North,-999,-999.0,-999.0,79,-99.99,,,-99.99,,2013-03-09 00:32:00,
2013-03-08 18:42:00,27.0,21.0,30.12,North,-999,-999.0,-999.0,79,-99.99,,,-99.99,,2013-03-09 00:42:00,
2013-03-08 18:52:00,27.0,21.0,30.11,North,-999,-999.0,-999.0,79,-99.99,,,-99.99,,2013-03-09 00:52:00,
2013-03-08 19:01:00,27.0,21.0,30.11,North,-999,-999.0,-999.0,79,-99.99,,,-99.99,,2013-03-09 01:01:00,
2013-03-08 19:12:00,27.0,21.0,30.11,North,-999,-999.0,-999.0,79,-99.99,,,-99.99,,2013-03-09 01:12:00,
2013-03-08 19:22:00,27.0,21.0,30.11,North,-999,-999.0,-999.0,79,-99.99,,,-99.99,,2013-03-09 01:22:00,
2013-03-08 19:32:00,27.0,23.0,30.11,North,-999,-999.0,-999.0,86,-99.99,,,-99.99,,2013-03-09 01:32:00,
2013-03-08 19:42:00,27.0,23.0,30.11,North,-999,-999.0,-999.0,86,-99.99,,,-99.99,,2013-03-09 01:42:00,
2013-03-08 19:51:00,27.0,23.0,30.11,North,-999,-999.0,-999.0,86,-99.99,,,-99.99,,2013-03-09 01:51:00,
2013-03-08 20:01:00,27.0,23.0,30.11,North,-999,-999.0,-999.0,86,-99.99,,,-99.99,,2013-03-09 02:01:00,
2013-03-08 20:11:00,28.0,25.0,30.10,North,-999,-999.0,-999.0,86,-99.99,,,-99.99,,2013-03-09 02:11:00,
2013-03-08 20:21:00,28.0,25.0,30.10,North,-999,-999.0,-999.0,86,-99.99,,,-99.99,,2013-03-09 02:21:00,
2013-03-08 20:31:00,28.0,25.0,30.09,North,-999,-999.0,-999.0,86,-99.99,,,-99.99,,2013-03-09 02:31:00,
2013-03-08 20:41:00,28.0,25.0,30.09,North,-999,-999.0,-999.0,86,-99.99,,,-99.99,,2013-03-09 02:41:00,
2013-03-08 20:51:00,28.0,25.0,30.07,North,-999,-999.0,-999.0,86,-99.99,,,-99.99,,2013-03-09 02:51:00,
2013-03-08 21:01:00,28.0,25.0,30.07,North,-999,-999.0,-999.0,86,-99.99,,,-99.99,,2013-03-09 03:01:00,
2013-03-08 21:11:00,28.0,27.0,30.06,North,-999,-999.0,-999.0,92,-99.99,,,-99.99,,2013-03-09 03:11:00,
2013-03-08 21:21:00,28.0,27.0,30.06,North,-999,-999.0,-999.0,92,-99.99,,,-99.99,,2013-03-09 03:21:00,
2013-03-08 21:31:00,28.0,27.0,30.07,North,-999,-999.0,-999.0,92,-99.99,,,-99.99,,2013-03-09 03:31:00,
2013-03-08 21:41:00,28.0,27.0,30.07,North,-999,-999.0,-999.0,92,-99.99,,,-99.99,,2013-03-09 03:41:00,
2013-03-08 21:52:00,28.0,27.0,30.06,North,-999,-999.0,-999.0,92,-99.99,,,-99.99,,2013-03-09 03:52:00,
2013-03-08 22:01:00,28.0,27.0,30.06,North,-999,-999.0,-999.0,92,-99.99,,,-99.99,,2013-03-09 04:01:00,
2013-03-08 22:11:00,30.0,27.0,30.04,North,-999,-999.0,-999.0,86,-99.99,,,-99.99,,2013-03-09 04:11:00,
2013-03-08 22:22:00,30.0,27.0,30.04,North,-999,-999.0,-999.0,86,-99.99,,,-99.99,,2013-03-09 04:22:00,
2013-03-08 22:32:00,30.0,28.0,30.03,North,-999,-999.0,-999.0,92,-99.99,,,-99.99,,2013-03-09 04:32:00,
2013-03-08 22:41:00,30.0,28.0,30.03,North,-999,-999.0,-999.0,92,-99.99,,,-99.99,,2013-03-09 04:41:00,
2013-03-08 22:51:00,30.0,28.0,30.02,North,-999,-999.0,-999.0,92,-99.99,,,-99.99,,2013-03-09 04:51:00,
2013-03-08 23:02:00,30.0,28.0,30.02,North,-999,-999.0,-999.0,92,-99.99,,,-99.99,,2013-03-09 05:02:00,
2013-03-08 23:12:00,30.0,28.0,30.01,North,-999,-999.0,-999.0,92,-99.99,,,-99.99,,2013-03-09 05:12:00,
2013-03-08 23:22:00,30.0,28.0,30.01,North,-999,-999.0,-999.0,92,-99.99,,,-99.99,,2013-03-09 05:22:00,
2013-03-08 23:31:00,30.0,28.0,30.00,North,-999,-999.0,-999.0,92,-99.99,,,-99.99,,2013-03-09 05:31:00,
2013-03-08 23:42:00,30.0,28.0,30.00,North,-999,-999.0,-999.0,92,-99.99,,,-99.99,,2013-03-09 05:42:00,
2013-03-08 23:52:00,30.0,28.0,30.00,North,-999,-999.0,-999.0,92,-99.99,,,-99.99,,2013-03-09 05:52:00,